TIANMU-1 08

Last updated on Thu Nov 21 2024 00:02:20 GMT+0000 (Coordinated Universal Time)

1 57400U 23101B 24325.60892296 .00010039 00000+0 45722-3 0 9996 2 57400 97.3412 18.3991 0007135 19.6642 340.4868 15.20851147 74164
UTC large
Height (km)
Speed (km/s)
/
Latitude / Longitude
Inclination (degrees)
Orbital Period (minutes)
Azimuth
Elevation
Range (km)
Doppler Factor

Next 0 passes for location: London (51.5072 / 0.1276)

Sorry there are no passes over London.